sat.trackr.live / text

‹ back to catalog

STARLINK-4689

NORAD 53590 · 2022-104C

PAYLOAD ACTIVE UNKNOWN

§ Identity

Operator
Country
US
Launch date
2022-08-28
Launch site
AFETR
Launch vehicle
Mass (kg)
RCS (m²)

Purposes: comms

External: N2YO · Heavens-Above · Gunter

§ Orbital elements

Epoch: 2026-09-19T21:49:34.732128Z

Period
94.01 min
Inclination
53.1619°
Eccentricity
0.0001157
Mean motion
15.31703404 rev/d
Perigee alt
469.9 km
Apogee alt
471.5 km
Semi-major
6,848.9 km
B*
2.9228e-5
RAAN
54.7854°
Arg perigee
83.7504°
Mean anomaly
276.3629°
Rev number
22,581

§ Raw data

STARLINK-46891 53590U 22104C   26262.90942977  .00000542  00000+0  29228-4 0  99932 53590  53.1619  54.7854 0001157  83.7504 276.3629 15.31703404225814

JSON: /api/v1/satellites/53590 · /tle

For live sub-satellite position, see the globe view (requires WebGL).

§ Visibility from observer

Set your observer location to see the next 7 days of passes ≥ 10°. The values pass through the URL so the page stays shareable.

No JS? Fill the form by hand. The geolocation button needs JavaScript.